Location: Spaichingen
(48.0400°N, 8.4300°E)
Time: 16:44:27
(UTC+02:00)

N. Korean satellite - Visible Passes

Search period start: 29 September 2020 00:00
Search period end: 09 October 2020 00:00
Orbit: 455 x 503 km, 97.2° (Epoch: 28 September)

Date Brightness Start Highest point End Pass type
(mag) Time Alt. Az. Time Alt. Az. Time Alt. Az.
30 Sep 8.1 06:43:02 10° NNE 06:46:30 42° E 06:49:53 10° S visible
01 Oct 9.5 06:17:28 10° NE 06:20:19 21° E 06:23:06 10° SE visible
02 Oct 10.2 05:52:52 10° ENE 05:54:01 11° E 05:55:08 10° ESE visible
04 Oct 8.7 06:32:20 10° NNE 06:35:35 31° E 06:38:45 10° SSE visible
05 Oct 9.8 06:07:00 10° NE 06:09:19 16° E 06:11:36 10° SE visible
06 Oct 10.7 19:27:30 10° WSW 19:28:41 11° W 19:29:52 10° WNW visible
07 Oct 7.7 06:47:17 10° NNE 06:50:45 47° E 06:54:08 10° S visible
08 Oct 9.2 06:21:38 10° NE 06:24:33 23° E 06:27:25 10° SSE visible
